This demonstration page uses our WeatherBlox Daily Observations layout. Learn more.

Left ArrowRight Arrow

Hourly Observations for June 24, 2018

Temp ( °F °C ) Dew Point ( °F °C ) Humidity (%) Winds ( mph kmh ) Pressure ( in mb ) Visibility ( mi km ) Precip ( " mm )
12:53 am 00:53 Clear 69 20.6 62 16.7 78 78 ENE 7 11 29.78 1008 10 16 0.00 0.00
1:53 am 01:53 Clear 68 20 61 16.1 78 78 Calm 29.79 1009 10 16 0.00 0.00
2:53 am 02:53 Clear 65 18.3 62 16.7 90 90 NW 10 17 29.79 1009 10 16 0.00 0.00
3:53 am 03:53 Clear 65 18.3 61 16.1 87 87 Calm 29.75 1007 10 16 0.00 0.00
4:53 am 04:53 Clear 64 17.8 60 15.6 87 87 Calm 29.74 1007 10 16 0.00 0.00
5:53 am 05:53 Clear 64 17.8 60 15.6 87 87 ESE 3 6 29.77 1008 10 16 0.00 0.00
6:53 am 06:53 Sunny 65 18.3 63 17.2 93 93 ESE 3 6 29.80 1009 10 16 0.00 0.00
7:28 am 07:28 Mostly Cloudy 68 20 59 15 73 73 WNW 16 26 29.83 1010 10 16 0.00 0.00
7:53 am 07:53 Mostly Cloudy 68 20 59 15 73 73 WNW 15 24 29.82 1010 10 16 0.00 0.03
8:53 am 08:53 Mostly Sunny 68 20 60 15.6 76 76 WNW 8 13 29.79 1009 10 16 0.00 0.00
9:53 am 09:53 Sunny 69 20.6 61 16.1 76 76 E 3 6 29.80 1009 10 16 0.00 0.00
10:53 am 10:53 Sunny 71 21.7 61 16.1 71 71 WNW 6 9 29.82 1010 10 16 0.00 0.00
11:53 am 11:53 Sunny 74 23.3 61 16.1 64 64 N 9 15 29.84 1011 10 16 0.00 0.00
12:53 pm 12:53 Sunny 76 24.4 63 17.2 64 64 NW 12 19 29.86 1011 10 16 0.00 0.00
1:53 pm 13:53 Sunny 76 24.4 63 17.2 64 64 NW 7 11 29.85 1011 10 16 0.00 0.00
2:53 pm 14:53 Sunny 79 26.1 65 18.3 62 62 NW 3 6 29.83 1010 10 16 0.00 0.00
3:53 pm 15:53 Sunny 80 26.7 65 18.3 60 60 NNW 8 13 29.83 1010 10 16 0.00 0.00
4:53 pm 16:53 Sunny 79 26.1 64 17.8 60 60 Calm 29.83 1010 10 16 0.00 0.00
5:53 pm 17:53 Sunny 81 27.2 65 18.3 58 58 Calm 29.83 1010 10 16 0.00 0.00
6:53 pm 18:53 Sunny 81 27.2 65 18.3 58 58 NW 5 7 29.84 1011 10 16 0.00 0.00
7:53 pm 19:53 Sunny 79 26.1 68 20 69 69 NW 6 9 29.83 1010 10 16 0.00 0.00
8:53 pm 20:53 Sunny 74 23.3 68 20 82 82 NW 5 7 29.86 1011 10 16 0.00 0.00
9:53 pm 21:53 Cloudy 74 23.3 64 17.8 71 71 NW 12 19 29.89 1012 10 16 0.00 0.00
10:53 pm 22:53 Cloudy 69 20.6 63 17.2 81 81 NW 9 15 29.91 1013 10 16 0.00 0.00
11:40 pm 23:40 Cloudy with Nearby Thunderstorms 70 21 63 17 78 78 W 9 15 29.91 1013 10 16 0.00 0.00
11:53 pm 23:53 Cloudy with Light Rain 68 20 63 17.2 84 84 W 13 20 29.94 1014 7 11 0.01 0.25

Powered by AerisWeather